Location: *
(45.9500°N, 9.0833°E)
Time: 14:44:36
(UTC+00:00)

Meteor 1-18 Rocket - Pass Details

Date: 03 March 2021
Orbit: 836 x 909 km, 81.2° (Epoch: 19 April)

Event Time Altitude Azimuth Distance (km) Brightness Sun altitude
Rises 17:47:47 0° 351° (N) 3,550 7.5 -6.8°
Reaches altitude 10° 17:50:19 10° 356° (N) 2,606 6.8 -7.3°
Maximum altitude 17:56:12 59° 76° (ENE) 1,047 4.4 -8.3°
Drops below altitude 10° 18:02:00 10° 155° (SSE) 2,573 6.5 -9.3°
Sets 18:04:28 0° 159° (SSE) 3,502 7.2 -9.7°
